Current Version              Previous Version:    01  02  03  04  05  06  07  08  09  10  11  12  13  14  15  16  17  18  19  20  21  22  23  24  25  26  27  28  29  30  
   31  32  33  34  35  36  37  38  39  40  41  42  43  44  45  46  47  48  49  50  51  52  53  54  55  56  57  58  59  60  

[Printable]
469
ASUS44 KFWD 240515
RWRTX
NORTH TEXAS HOURLY WEATHER ROUNDUP
NATIONAL WEATHER SERVICE FORT WORTH TX
1200 AM CDT FRI OCT 24 2014

NOTE: "FAIR" INDICATES FEW OR NO CLOUDS BELOW 12,000 FEET WITH NO
SIGNIFICANT WEATHER AND/OR OBSTRUCTIONS TO VISIBILITY.

TXZ118-119-240600-
DALLAS/FORT WORTH METROPLEX

CITY           SKY/WX    TMP DP  RH WIND       PRES   REMARKS
DFW AIRPORT    CLEAR     65  55  70 SE5       30.11S
DALLAS LOVE    CLEAR     67  55  65 SE9       30.11S
FTW MEACHAM    CLEAR     67  56  67 SE9       30.10S
DAL-EXECUTIVE  CLEAR     65  55  70 SE7       30.11S
FTW-ALLIANCE   CLEAR     64  56  75 SE3       30.11R
FTW-NAS-JRB    CLEAR     72  55  55 SE7       30.15S
FTW-SPINKS     CLEAR     61  55  81 CALM      30.13S
ARLINGTON      CLEAR     65  55  70 SE6       30.11F
GRAND PRAIRIE  CLEAR     67  57  71 SE3       30.12F
ADDISON        CLEAR     68  58  70 SE9       30.13S
MESQUITE       CLEAR     62  55  78 SE6       30.12S
LANCASTER      CLEAR     61  54  77 CALM      30.12F
$$

TXZ091>094-102>105-117-120-121-131>134-240600-
NORTH CENTRAL TEXAS

CITY           SKY/WX    TMP DP  RH WIND       PRES   REMARKS
SHRMAN/DENISON CLEAR     64  58  80 SE6       30.13R
GAINESVILLE    CLEAR     61  56  83 SE5       30.13F
BOWIE          CLEAR     63  57  82 SE5       30.12S
BRIDGEPORT     CLEAR     65  58  77 CALM      30.13R
DECATUR        CLEAR     64  55  74 SE6       30.12R
DENTON         CLEAR     64  57  78 SE3       30.11S
MCKINNEY       CLEAR     62  56  80 SE3       30.12S
GREENVILLE     CLEAR     59  54  82 CALM      30.13F
ROCKWALL       CLEAR     63  56  77 SE5       30.11F
TERRELL        CLEAR     63  56  78 SE6       30.13S
WAXAHACHIE     CLEAR     63  57  81 CALM      30.13F
CLEBURNE       CLEAR     64  59  82 SE7       30.13S
GRANBURY       CLEAR     68  58  70 SE5       30.12S
$$

TXZ083>090-098>101-113>116-127>130-139>142-154-155-240600-
WESTERN NORTH TEXAS

CITY           SKY/WX    TMP DP  RH WIND       PRES   REMARKS
WICHITA FALLS  CLEAR     66  58  75 S9        30.08S
WF-KICKAPOO    CLEAR     66  58  73 S5        30.09F
VERNON         CLEAR     66  57  72 SE5       30.09S
ABILENE        CLEAR     66  59  78 S7        30.12S
ABILENE-DYESS  CLEAR     62  57  83 S6        30.10S
BRECKENRIDGE   CLEAR     70  59  66 S8        30.09F
GRAHAM         CLEAR     67  60  77 SE5       30.09S
MINERAL WELLS  CLEAR     65  58  78 SE10      30.10R
STEPHENVILLE   CLEAR     64  56  75 CALM      30.15R
COMANCHE       CLEAR     67  60  77 S8        30.12S
BROWNWOOD      CLOUDY    66  61  82 SW3       30.13S
COLEMAN        CLEAR     67  60  79 S5        30.13S
BRADY          PTCLDY    66  59  77 CALM      30.13S
$$

TXZ143>147-156>162-174-175-240600-
CENTRAL TEXAS

CITY           SKY/WX    TMP DP  RH WIND       PRES   REMARKS
WACO           CLEAR     66  56  70 SE7       30.11S
WACO-MCGREGOR  CLEAR     64  52  63 S8        30.12F
HILLSBORO      CLEAR     67  54  64 SE8       30.12S
CORSICANA      CLEAR     64  56  75 SE6       30.13S
MEXIA          CLEAR     61  56  82 SE3       30.11S
HEARNE         CLEAR     63  55  75 CALM      30.12F HAZE
CAMERON        CLEAR     65  56  71 SE5       30.11S
TEMPLE         CLEAR     64  52  63 SE6       30.11S
KILLEEN        CLEAR     64  57  76 S6        30.12S
KILLEEN-SKYLRK CLEAR     66  54  63 S3        30.09S
FORT HOOD      CLEAR     68  57  68 SE3       30.12S
GATESVILLE     CLEAR     64  55  72 SE6       30.14S
HAMILTON       CLEAR     64  57  79 SE9       30.13F
LAMPASAS       CLEAR     64  59  83 CALM      30.12S
$$

TXZ095>097-106>112-122>126-135>138-148>153-164>167-240600-
EAST TEXAS

CITY           SKY/WX    TMP DP  RH WIND       PRES   REMARKS
PARIS          CLEAR     55  46  71 E7        30.14S
SULPHUR SPRNGS CLEAR     60  54  79 SE5       30.15F
MOUNT PLEASANT CLEAR     56  54  94 CALM      30.15S
MINEOLA        CLEAR     57  55  94 CALM      30.14F
TYLER          CLEAR     64  52  64 CALM      30.13S
LONGVIEW       CLEAR     55  52  89 CALM      30.13S
MARSHALL       CLEAR     56  53  91 CALM      30.15F
ATHENS         CLEAR     55  54  94 CALM      30.13R
PALESTINE      CLEAR     60  57  89 CALM      30.14S
JACKSONVILLE   CLEAR     59  51  76 CALM      30.15S
HENDERSON      CLEAR     54  54  99 CALM      30.15R
NACOGDOCHES    CLEAR     52  48  87 CALM      30.13F
LUFKIN         CLEAR     56  51  84 CALM      30.13S
$$

SUPPLEMENTAL OBSERVATIONS (CENTRAL)

CITY           SKY/WX    TMP DP  RH WIND       PRES   REMARKS
LAKE TEXOMA      N/A     61  55  82 E3          N/A
CADDO GRASSLND   N/A     61  52  72 S5          N/A
PAT MAYSE LAKE   N/A     59  50  72 E5          N/A
CEDAR HILL       N/A     66  55  68 SE6         N/A
LAKE LIMESTONE   N/A     61  55  82 CALM        N/A
MCGREGOR         N/A     64  54  68 SW1         N/A
$$

SUPPLEMENTAL OBSERVATIONS (WEST)

CITY           SKY/WX    TMP DP  RH WIND       PRES   REMARKS
LBJ GRASSLAND    N/A     66  54  63 SE7         N/A
COMANCHE         N/A     68  59  73 S8          N/A
HAMBY            N/A     64  57  77 SE2         N/A
IVIE RESERVOIR   N/A     66  57  72 SW2         N/A
COLORADO BEND    N/A     68  57  68 S6          N/A
$$

SUPPLEMENTAL OBSERVATIONS (EAST)

CITY           SKY/WX    TMP DP  RH WIND       PRES   REMARKS
CLARKSVILLE      N/A     55  50  82 E1          N/A
LUFKIN           N/A     52  48  87 MISG        N/A
N SABINE NF      N/A     48  45  87 MISG        N/A
$$

SUPPLEMENTAL OBSERVATIONS ARE A COLLECTION OF AUTOMATED INSTRUMENTS
THAT ARE MAINTAINED BY A VARIETY OF FEDERAL AND STATE AGENCIES.
CERTAIN ELEMENTS...SUCH AS HUMIDITY VALUES AND SUSTAINED WIND
SPEEDS...MAY BE APPROXIMATED.